Change the Weather History Date:

Thursday, May 16, 2013

  Actual Average Record
Temperature  
Mean Temperature 70 °F -  
Max Temperature 83 °F 0 °F 83 °F (2013)
Min Temperature 59 °F - 35 °F (2011)
Cooling Degree Days 6    
Growing Degree Days 20 (Base 50)    
Moisture  
Dew Point 42 °F    
Average Humidity 37    
Maximum Humidity 48    
Minimum Humidity 20    
Precipitation  
Precipitation 0.00 in - - ()
Sea Level Pressure  
Sea Level Pressure 29.91 in    
Wind  
Wind Speed 7 mph (NNE)    
Max Wind Speed 13 mph    
Max Gust Speed 21 mph    
Visibility 10 miles    
Events      
Averages and records for this station are not official NWS values.
T = Trace of Precipitation, MM = Missing Value Source: NWS Daily Summary

Daily Weather History Graph

Daily Weather History Graph

Search for Another Location

Airport or City:

Trip Planner

Search our weather history database for the weather conditions in past years. The results will help you decide how hot, cold, wet, or windy it might be!

Date:

Astronomy

May. 16, 2013 Rise Set
Actual Time 5:34 AM CDT 8:15 PM CDT
Civil Twilight 5:02 AM CDT 8:47 PM CDT
Nautical Twilight 4:21 AM CDT 9:28 PM CDT
Astronomical Twilight 3:35 AM CDT 10:15 PM CDT
Moon 11:10 AM CDT (5/16) 12:33 AM CDT (5/16)
Length of Visible Light 15h 45m
Length of Day
14h 40m
Waxing Crescent, 36% of the Moon is Illuminated
May 16
Waxing Crescent
May 17
First Quarter
May 24
Full
May 31
Last Quarter
Jun 8
New

Hourly Weather History & Observations

Time (CDT) Temp. Dew Point Humidity Pressure Visibility Wind Dir Wind Speed Gust Speed Precip Events Conditions
12:15 AM 63.5 °F 39.0 °F 41% 29.86 in 10.0 mi NW 8.1 mph - N/A   Clear
12:35 AM 63.7 °F 39.0 °F 40% 29.86 in 10.0 mi NW 8.1 mph - N/A   Clear
12:55 AM 63.1 °F 39.2 °F 41% 29.86 in 10.0 mi NW 9.2 mph - N/A   Clear
1:15 AM 62.8 °F 39.4 °F 42% 29.86 in 10.0 mi NNW 8.1 mph - N/A   Clear
1:35 AM 63.0 °F 39.6 °F 42% 29.86 in 10.0 mi NW 10.4 mph - N/A   Clear
1:55 AM 63.5 °F 39.9 °F 42% 29.87 in 10.0 mi NW 10.4 mph - N/A   Clear
2:15 AM 63.1 °F 40.1 °F 43% 29.87 in 10.0 mi NW 9.2 mph - N/A   Clear
2:35 AM 63.0 °F 40.1 °F 43% 29.87 in 10.0 mi NW 8.1 mph - N/A   Clear
2:55 AM 63.0 °F 40.3 °F 43% 29.88 in 10.0 mi NW 10.4 mph - N/A   Clear
3:15 AM 62.8 °F 40.5 °F 44% 29.88 in 10.0 mi NW 9.2 mph - N/A   Clear
3:35 AM 61.7 °F 41.0 °F 47% 29.89 in 10.0 mi NW 10.4 mph - N/A   Clear
3:55 AM 62.2 °F 41.0 °F 46% 29.88 in 10.0 mi NW 8.1 mph - N/A   Clear
4:15 AM 62.1 °F 41.0 °F 46% 29.88 in 10.0 mi NW 6.9 mph - N/A   Clear
4:35 AM 61.9 °F 41.2 °F 47% 29.88 in 10.0 mi NW 5.8 mph - N/A   Clear
4:55 AM 61.7 °F 41.2 °F 47% 29.89 in 10.0 mi NW 5.8 mph - N/A   Clear
5:15 AM 61.0 °F 41.2 °F 48% 29.89 in 10.0 mi NNW 4.6 mph - N/A   Clear
5:35 AM 61.7 °F 41.5 °F 48% 29.90 in 10.0 mi NNW 4.6 mph - N/A   Clear
5:55 AM 62.8 °F 41.4 °F 45% 29.90 in 10.0 mi NNW 5.8 mph - N/A   Clear
6:15 AM 63.5 °F 42.1 °F 46% 29.91 in 10.0 mi NNW 5.8 mph - N/A   Clear
6:35 AM 62.8 °F 42.3 °F 47% 29.91 in 10.0 mi NNW 5.8 mph - N/A   Clear
6:55 AM 63.3 °F 42.4 °F 46% 29.92 in 10.0 mi North 3.5 mph - N/A   Clear
7:15 AM 64.9 °F 44.8 °F 48% 29.92 in 10.0 mi Calm Calm - N/A   Scattered Clouds
7:35 AM 65.8 °F 45.7 °F 48% 29.93 in 10.0 mi North 3.5 mph - N/A   Clear
7:55 AM 68.2 °F 45.7 °F 44% 29.93 in 10.0 mi North 6.9 mph - N/A   Clear
8:15 AM 68.2 °F 45.3 °F 44% 29.93 in 10.0 mi North 5.8 mph - N/A   Clear
8:35 AM 69.8 °F 47.5 °F 45% 29.93 in 10.0 mi North 3.5 mph - N/A   Clear
8:55 AM 72.5 °F 46.9 °F 40% 29.94 in 10.0 mi NNE 4.6 mph - N/A   Clear
9:15 AM 73.6 °F 46.2 °F 38% 29.94 in 10.0 mi NNE 3.5 mph - N/A   Clear
9:35 AM 75.4 °F 46.9 °F 36% 29.94 in 10.0 mi NE 3.5 mph - N/A   Clear
9:55 AM 75.4 °F 45.5 °F 34% 29.94 in 10.0 mi East 3.5 mph - N/A   Clear
10:15 AM 76.5 °F 44.8 °F 32% 29.94 in 10.0 mi North 4.6 mph - N/A   Clear
10:35 AM 77.4 °F 44.1 °F 31% 29.94 in 10.0 mi Calm Calm - N/A   Clear
10:55 AM 78.3 °F 44.2 °F 30% 29.94 in 10.0 mi ENE 3.5 mph - N/A   Clear
11:15 AM 78.1 °F 41.9 °F 27% 29.94 in 10.0 mi Calm Calm - N/A   Clear
11:35 AM 78.3 °F 43.7 °F 29% 29.94 in 10.0 mi South 4.6 mph - N/A   Clear
11:55 AM 79.0 °F 43.0 °F 28% 29.93 in 10.0 mi Calm Calm - N/A   Clear
12:15 PM 79.7 °F 42.6 °F 27% 29.92 in 10.0 mi ESE 4.6 mph - N/A   Clear
12:35 PM 79.5 °F 41.9 °F 26% 29.92 in 10.0 mi ESE 4.6 mph - N/A   Clear
12:55 PM 80.1 °F 40.1 °F 24% 29.92 in 10.0 mi Calm Calm - N/A   Clear
1:15 PM 81.1 °F 37.2 °F 21% 29.92 in 10.0 mi Calm Calm - N/A   Clear
1:35 PM 81.3 °F 38.3 °F 21% 29.91 in 10.0 mi SW 3.5 mph - N/A   Clear
2:15 PM 81.3 °F 42.8 °F 26% 29.90 in 10.0 mi East 6.9 mph - N/A   Clear
2:35 PM 81.3 °F 42.1 °F 25% 29.90 in 10.0 mi Calm Calm - N/A   Clear
2:55 PM 82.6 °F 38.5 °F 21% 29.90 in 10.0 mi SW 4.6 mph - N/A   Clear
3:15 PM 82.4 °F 41.0 °F 23% 29.90 in 10.0 mi ESE 6.9 mph - N/A   Clear
3:35 PM 82.4 °F 40.6 °F 23% 29.89 in 10.0 mi SE 3.5 mph - N/A   Clear
3:55 PM 82.6 °F 40.1 °F 22% 29.89 in 10.0 mi East 6.9 mph - N/A   Clear
4:15 PM 82.8 °F 41.5 °F 23% 29.88 in 10.0 mi ESE 4.6 mph - N/A   Clear
4:35 PM 82.9 °F 37.6 °F 20% 29.88 in 10.0 mi South 5.8 mph - N/A   Clear
5:15 PM 82.4 °F 38.8 °F 21% 29.88 in 10.0 mi SSE 6.9 mph - N/A   Clear
5:35 PM 82.6 °F 37.6 °F 20% 29.88 in 10.0 mi SSE 4.6 mph - N/A   Clear
5:55 PM 82.6 °F 38.7 °F 21% 29.88 in 10.0 mi SSW 4.6 mph - N/A   Clear
6:35 PM 80.1 °F 43.3 °F 27% 29.88 in 10.0 mi South 6.9 mph - N/A   Clear
6:55 PM 79.3 °F 44.4 °F 29% 29.89 in 10.0 mi South 8.1 mph - N/A   Clear
7:15 PM 78.8 °F 42.6 °F 28% 29.88 in 10.0 mi SSE 8.1 mph - N/A   Clear
7:35 PM 77.0 °F 43.0 °F 30% 29.88 in 10.0 mi SE 6.9 mph - N/A   Scattered Clouds
7:55 PM 73.6 °F 47.1 °F 39% 29.90 in 10.0 mi ENE 11.5 mph 20.7 mph N/A   Clear
8:15 PM 70.9 °F 47.7 °F 44% 29.92 in 10.0 mi ENE 8.1 mph - N/A   Clear
8:35 PM 68.9 °F 46.8 °F 45% 29.93 in 10.0 mi ENE 9.2 mph - N/A   Clear
8:55 PM 68.0 °F 45.0 °F 43% 29.93 in 10.0 mi ENE 10.4 mph 17.3 mph N/A   Clear
9:15 PM 66.6 °F 43.9 °F 44% 29.94 in 10.0 mi ENE 12.7 mph - N/A   Clear
9:35 PM 65.3 °F 43.0 °F 44% 29.95 in 10.0 mi ENE 11.5 mph - N/A   Clear
9:55 PM 64.2 °F 42.4 °F 45% 29.95 in 10.0 mi ENE 10.4 mph - N/A   Clear
10:15 PM 62.6 °F 40.5 °F 44% 29.95 in 10.0 mi ENE 10.4 mph - N/A   Clear
10:35 PM 61.7 °F 39.4 °F 44% 29.95 in 10.0 mi ENE 11.5 mph - N/A   Clear
10:55 PM 60.8 °F 37.9 °F 43% 29.96 in 10.0 mi ENE 9.2 mph - N/A   Clear
11:15 PM 60.3 °F 37.4 °F 43% 29.96 in 10.0 mi ENE 6.9 mph - N/A   Clear
11:35 PM 59.5 °F 37.4 °F 44% 29.95 in 10.0 mi ENE 8.1 mph - N/A   Clear
11:55 PM 59.0 °F 37.6 °F 45% 29.96 in 10.0 mi ENE 8.1 mph - N/A   Clear